STARLINK-37054, 68082

Orbit data source: Space-Track

STARLINK-37054, 68082 is a payload satellite owned by SpaceX/Seattle (US) in LEO that was launched on Wed, 04 Mar 2026 UTC via an FALCON 9 launch vehicle from the Air Force Eastern Test Range (AFETR). Payload-class satellites include a variety of spacecraft equipped with specific instruments for various scientific and technological missions. These include communications satellites like Starlink; space stations such as the ISS; scientific satellites like the Hubble; Earth observation satellites from companies like Planet Labs, Umbra, and HawkEye 360; GPS; miniature CubeSats for education and research; and military/defense satellites.

Loading next visibility...
Identifier
68082, 2026-042P
Orbit
LEO
Country
Flag of USUS
Related business
Manufacturer
SpaceX/Seattle
Mission
Operational Commercial Communications
Bus & Motor
STARLINK V2MO, Unknown motor
Mass
575 kg wet, ~530 kg dry
Launch date (UTC)
2026-03-04 (2 months ago)
Launch vehicle
FALCON 9
Launch site
Air Force Eastern Test Range (AFETR)
Object type
Payload
Rocket body
Debris
Shape & HBR
Box + 2 Pan, 17.7 m
Radar Cross Section
36.964 m²

Expand to show TLE details & history
Last TLE update: 6 hours ago

TLE from 6 hours ago
0 STARLINK-37054
1 68082U 26042P   26119.50002315 -.02035473  00000-0 -60754-1 0  9992
2 68082  53.1589 302.4110 0001118 111.8982  62.8889 15.37829865  5975
Epoch: 2026-04-29T12:00Z
TLE epoch observation values (Epoch: 2026-04-29T12:00:02.000Z)
Latitude
4.10595°
Longitude
81.87669°
Altitude
452.643 km
Speed
7.643 km/s
True Right ascension
07h 57m 22s
True Declination
4° 04' 49"
Sunlit
Object was in daylight at epoch
Visualization orbit readout
Latitude
Unknown
Longitude
Unknown
Altitude
Unknown
Speed
Unknown
Apparent Right ascension
Unknown
Apparent Declination
Unknown
Sunlit
N/A
Visualization observer readout
Local Sidereal Time
01:13:35
Azimuth
Unknown
Elevation
Unknown
Doppler factor
Unknown
Orbital elements
Apogee altitude
453.549 km
Perigee altitude
452.022 km
Semi-major axis
6,830.922 km
Eccentricity
0.00011
Inclination
53.1589°
RAAN
302.411°
Arg. of periapsis
111.8982°
True anomaly
62.9003°
Mean anomaly
62.8889°
Eccentric anomaly
62.8946°
Mean motion
3.84436 °/min
Orbital period
93.64 mins
BSTAR
-0.060754
Loading maneuver chart data...
Computing Atmospheric mass density...
Loading historical data...
Loading historical data...
Loading historical data...
Loading historical data...
Loading historical data...
Loading historical data...
Loading historical data...

Documentation

Showing up to 5 results
|